Location: Focicchia
(42.2496°N, 9.2935°E)
Time: 06:53:15
(UTC+00:00)

X-37B - Pass Details

Date: 31 July 2021
Orbit: 381 x 393 km, 45.0° (Epoch: 29 August)

Event Time Altitude Azimuth Distance (km) Brightness Sun altitude
Exits shadow 02:55:13 14° 178° (S) 1,184 2.7 -13.1°
Maximum altitude 02:56:40 18° 145° (SE) 1,011 2.6 -12.9°
Drops below altitude 10° 02:58:55 10° 99° (E) 1,395 4.0 -12.6°
Sets 03:01:23 0° 79° (E) 2,253 5.6 -12.3°
